Regional Weather Roundup
Issued by NWS

Home | Current Version | Previous Version | Graphics & Text | Print | Product List | Glossary On
Versions: 1 2 3 4 5 6 7 8 9 10 11 12 13 14 15 16 17 18 19 20 21 22 23 24 25 26 27 28 29 30 31 32 33 34 35 36 37 38 39 40 41 42 43 44 45 46 47 48 49 50
000
ASUS45 KSLC 171110
RWRUT

UTAH REGIONAL WEATHER ROUNDUP
NATIONAL WEATHER SERVICE SALT LAKE CITY UT
400 AM MST WED DEC 17 2014

UTZ001>011-023>025-171200-

NORTHERN UTAH

CITY           SKY/WX    TMP DP  RH WIND       PRES   REMARKS
BRIGHAM CITY   MOCLDY    28  26  90 CALM      29.99F
HILL AFB       CLOUDY    31  27  84 E2        29.97F
LOGAN          CLOUDY    28  25  88 CALM      29.98F
OGDEN          CLOUDY    29  28  96 CALM      29.97F
PROVO AIRPORT  MOCLDY    34  27  75 N5        29.98F WCI  30
SALT LAKE CITY CLOUDY    33  30  88 CALM      29.97F
VERNAL         CLOUDY    22  21  96 SW5       30.06F FOG     WCI  16
WENDOVER       PTCLDY    19  16  86 NE7       29.99F WCI  10
HEBER CITY     MOCLDY    30  23  74 CALM      29.97S
WEST JORDAN    CLOUDY    32  30  93 CALM      29.97F

$$

UTZ012>022-026-027-171200-

SOUTHERN/CENTRAL UTAH

CITY           SKY/WX    TMP DP  RH WIND       PRES   REMARKS
BLANDING       CLOUDY    33  29  85 CALM      30.06S
BRYCE CANYON   LGT SNOW  24  22  91 W3        29.98F FOG
CEDAR CITY     CLOUDY    34  25  69 SW5       29.95S WCI  30
DELTA          CLOUDY    30  26  83 NE3       29.97S
MILFORD        CLOUDY    32  26  78 W6        29.95F WCI  26
MOAB/CYNLANDS  CLOUDY    34  31  88 CALM      30.01F
PRICE          MOCLDY    23  17  78 N5        30.00F WCI  17
ST GEORGE      CLOUDY    43  32  65 NE5       30.00F
KANAB          CLOUDY    34  34 100 NW3       30.04F

$$

REGIONAL REPORTS     COLORADO/ARIZONA

CITY           SKY/WX    TMP DP  RH WIND       PRES   REMARKS
CRAIG, CO      CLOUDY    22  20  92 CALM      30.02F
GRAND JUNCTION CLOUDY    31  28  89 CALM      30.02S
RIFLE          CLOUDY    29  25  85 CALM      30.05S
MONTROSE       CLOUDY    30  26  85 CALM      30.04F
CORTEZ         MOCLDY    31  27  85 CALM      29.98F
PAGE, AZ       CLOUDY    41  30  65 NW8       29.98F
GRAND CANYON   LGT SNOW  31  30  96 SW3       30.00S FOG
KINGMAN        MOCLDY    40  36  86 S6        29.98F
FLAGSTAFF      LGT SNOW  30  27  88 W3        29.98S FOG

$$

REGIONAL REPORTS    NEVADA/IDAHO/WYOMING

CITY           SKY/WX    TMP DP  RH WIND       PRES   REMARKS
LAS VEGAS, NV  MOCLDY    48  41  76 S6        29.94F
ELY            MOCLDY    18  16  92 S8        29.96S WCI   8
ELKO           PTCLDY    20  18  92 E10       29.95F WCI   9
POCATELLO, ID  FOG       26  26 100 NE5       30.00S VSB 1/4 WCI  20
BURLEY         CLEAR     27  24  89 CALM      29.98S
EVANSTON, WY   PTCLDY    23  17  78 E7        29.96F WCI  15
ROCK SPRINGS   MOCLDY    12   9  87 S3        29.99F

$$


USA.gov is the U.S. government's official web portal to all federal, state and local government web resources and services.